This is the latest recevied weather packets stored in our database for station/object ALTO-WX. If no packets are shown the sender has not sent any weather packets the latest 10 day(s).
| Time | Temp. | Humidity | Pressure | Rain* | Wind** | Luminosity | Snow |
|---|---|---|---|---|---|---|---|
| 1778403660 | 3.89° C | 60% | 984.4 hPa | 0 mm | - | - | - |
| 1778402736 | 4.44° C | 59% | 982.9 hPa | 0 mm | - | - | - |
| 1778401853 | 4.44° C | 56% | 982.8 hPa | 0 mm | - | - | - |
| 1778400936 | 4.44° C | 56% | 982.8 hPa | 0 mm | - | - | - |
| 1778400062 | 5° C | 55% | 982.4 hPa | 0 mm | - | - | - |
| 1778399135 | 5° C | 51% | 982.3 hPa | 0 mm | - | - | - |
| 1778398249 | 5° C | 51% | 982.3 hPa | 0 mm | - | - | - |
| 1778397335 | 5° C | 51% | 982.3 hPa | 0 mm | - | - | - |
| 1778396458 | 5.56° C | 51% | 982.3 hPa | 0 mm | - | - | - |
| 1778395535 | 5.56° C | 51% | 982 hPa | 0 mm | - | - | - |
| 1778394652 | 6.11° C | 50% | 982 hPa | 0 mm | - | - | - |
| 1778393733 | 6.11° C | 50% | 982 hPa | 0 mm | - | - | - |
| 1778392870 | 6.67° C | 50% | 982 hPa | 0 mm | - | - | - |
| 1778391935 | 6.67° C | 52% | 981.6 hPa | 0 mm | - | - | - |
| 1778391053 | 7.22° C | 53% | 981.5 hPa | 0 mm | - | - | - |
| 1778390134 | 7.22° C | 53% | 981.5 hPa | 0 mm | - | - | - |
| 1778389258 | 7.78° C | 53% | 981.5 hPa | 0 mm | - | - | - |
| 1778388334 | 8.33° C | 53% | 979.8 hPa | 0 mm | - | - | - |
| 1778387451 | 8.33° C | 53% | 979.8 hPa | 0 mm | - | - | - |
| 1778386533 | 8.89° C | 53% | 979.8 hPa | 0 mm | - | - | - |
| 1778385661 | 9.44° C | 53% | 979.8 hPa | 0 mm | - | - | - |
| 1778384733 | 9.44° C | 49% | 979.1 hPa | 0 mm | - | - | - |
| 1778383851 | 10° C | 48% | 979.2 hPa | 0 mm | - | - | - |
| 1778382933 | 10° C | 48% | 979.2 hPa | 0 mm | - | - | - |
| 1778382061 | 10.56° C | 48% | 979.2 hPa | 0 mm | - | - | - |
* Rain latest hour (hover to see other rain measurements)
** Current wind speed in m/s (hover to see current wind gust speed)